Time,TemperatureF,DewpointF,PressureIn,WindDirection,WindDirectionDegrees,WindSpeedMPH,WindSpeedGustMPH,Humidity,HourlyPrecipIn,Conditions,Clouds,dailyrainin,SoftwareType,DateUTC
2013-12-04 00:01:00,49.3,43.7,29.61,NE,52,0.0,0.0,81,0.00,CLR,CLR,0.00,WeatherDisplay:10.36,2013-12-04 06:01:00,
2013-12-04 00:06:00,49.1,43.5,29.64,NE,47,0.0,0.0,81,0.00,CLR,CLR,0.00,WeatherDisplay:10.36,2013-12-04 06:06:00,
2013-12-04 00:11:00,49.1,43.5,29.64,NE,45,0.0,0.0,81,0.00,CLR,CLR,0.00,WeatherDisplay:10.36,2013-12-04 06:11:00,
2013-12-04 00:16:00,48.9,43.3,29.64,East,99,0.0,0.0,81,0.00,CLR,CLR,0.00,WeatherDisplay:10.36,2013-12-04 06:16:00,
2013-12-04 00:21:00,48.9,43.7,29.61,NE,51,0.0,0.0,82,0.00,CLR,CLR,0.00,WeatherDisplay:10.36,2013-12-04 06:21:00,
2013-12-04 00:26:00,49.1,43.8,29.61,NE,43,0.0,0.0,82,0.00,CLR,CLR,0.00,WeatherDisplay:10.36,2013-12-04 06:26:00,
2013-12-04 00:31:00,49.3,44.0,29.61,ENE,69,0.0,0.0,82,0.00,CLR,CLR,0.00,WeatherDisplay:10.36,2013-12-04 06:31:00,
2013-12-04 00:36:00,49.3,44.0,29.61,NE,45,0.0,0.0,82,0.00,CLR,CLR,0.00,WeatherDisplay:10.36,2013-12-04 06:36:00,
2013-12-04 00:41:00,49.5,44.2,29.61,NE,53,0.0,0.0,82,0.00,CLR,CLR,0.00,WeatherDisplay:10.36,2013-12-04 06:41:00,
2013-12-04 00:46:00,49.5,44.5,29.61,ESE,105,0.0,0.0,83,0.00,CLR,CLR,0.00,WeatherDisplay:10.36,2013-12-04 06:46:00,
2013-12-04 00:51:00,49.6,44.7,29.61,NE,46,0.0,0.0,83,0.00,CLR,CLR,0.00,WeatherDisplay:10.36,2013-12-04 06:51:00,
2013-12-04 00:56:00,49.8,44.9,29.61,NE,53,0.0,0.0,83,0.00,CLR,CLR,0.00,WeatherDisplay:10.36,2013-12-04 06:56:00,
2013-12-04 01:01:00,49.8,44.9,29.61,NE,50,0.0,0.0,83,0.00,CLR,CLR,0.00,WeatherDisplay:10.36,2013-12-04 07:01:00,
2013-12-04 01:06:00,50.0,45.0,29.61,ENE,76,0.0,0.0,83,0.00,CLR,CLR,0.00,WeatherDisplay:10.36,2013-12-04 07:06:00,
2013-12-04 01:11:00,50.0,45.4,29.61,NE,47,0.0,0.0,84,0.00,CLR,CLR,0.00,WeatherDisplay:10.36,2013-12-04 07:11:00,
2013-12-04 01:16:00,50.2,45.5,29.61,ENE,60,0.0,0.0,84,0.00,CLR,CLR,0.00,WeatherDisplay:10.36,2013-12-04 07:16:00,
2013-12-04 01:21:00,50.2,45.5,29.61,NE,56,0.0,0.0,84,0.00,CLR,CLR,0.00,WeatherDisplay:10.36,2013-12-04 07:21:00,
2013-12-04 01:26:00,50.2,45.5,29.61,East,92,0.0,0.0,84,0.00,CLR,CLR,0.00,WeatherDisplay:10.36,2013-12-04 07:26:00,
2013-12-04 01:31:00,50.2,45.5,29.61,NE,55,0.0,0.0,84,0.00,CLR,CLR,0.00,WeatherDisplay:10.36,2013-12-04 07:31:00,
2013-12-04 01:36:00,50.2,45.5,29.61,ENE,60,0.0,0.0,84,0.00,CLR,CLR,0.00,WeatherDisplay:10.36,2013-12-04 07:36:00,
2013-12-04 01:41:00,50.4,45.7,29.61,ESE,105,0.0,0.0,84,0.00,CLR,CLR,0.00,WeatherDisplay:10.36,2013-12-04 07:41:00,
2013-12-04 01:46:00,50.4,45.7,29.61,ENE,58,0.0,0.0,84,0.00,CLR,CLR,0.00,WeatherDisplay:10.36,2013-12-04 07:46:00,
2013-12-04 01:51:00,50.4,46.0,29.61,ENE,57,0.0,0.0,85,0.00,CLR,CLR,0.00,WeatherDisplay:10.36,2013-12-04 07:51:00,
2013-12-04 01:56:00,50.5,46.2,29.61,East,94,0.0,0.0,85,0.00,CLR,CLR,0.00,WeatherDisplay:10.36,2013-12-04 07:56:00,
2013-12-04 02:01:00,50.5,46.2,29.61,ENE,64,0.0,0.0,85,0.00,CLR,CLR,0.00,WeatherDisplay:10.36,2013-12-04 08:01:00,
2013-12-04 02:06:00,50.5,46.2,29.61,ENE,60,0.0,0.0,85,0.00,CLR,CLR,0.00,WeatherDisplay:10.36,2013-12-04 08:06:00,
2013-12-04 02:11:00,50.5,46.2,29.61,East,94,0.0,0.0,85,0.00,CLR,CLR,0.00,WeatherDisplay:10.36,2013-12-04 08:11:00,
2013-12-04 02:16:00,50.7,46.4,29.61,East,88,0.0,0.0,85,0.00,CLR,CLR,0.00,WeatherDisplay:10.36,2013-12-04 08:16:00,
2013-12-04 02:21:00,50.7,46.4,29.61,East,83,0.0,0.0,85,0.00,CLR,CLR,0.00,WeatherDisplay:10.36,2013-12-04 08:21:00,
2013-12-04 02:28:00,50.7,46.4,29.61,ENE,74,0.0,0.0,85,0.00,CLR,CLR,0.00,WeatherDisplay:10.36,2013-12-04 08:28:00,
2013-12-04 02:33:00,50.7,46.4,29.61,NE,40,0.0,0.0,85,0.00,CLR,CLR,0.00,WeatherDisplay:10.36,2013-12-04 08:33:00,
2013-12-04 02:38:00,50.7,46.4,29.61,NNE,29,0.0,0.0,85,0.00,CLR,CLR,0.00,WeatherDisplay:10.36,2013-12-04 08:38:00,
2013-12-04 02:43:00,50.5,46.2,29.61,NNE,29,0.0,0.0,85,0.00,CLR,CLR,0.00,WeatherDisplay:10.36,2013-12-04 08:43:00,
2013-12-04 02:48:00,50.2,45.5,29.61,NNE,28,0.0,0.0,84,0.00,CLR,CLR,0.00,WeatherDisplay:10.36,2013-12-04 08:48:00,
2013-12-04 02:53:00,50.0,45.7,29.61,NNE,29,0.0,0.0,85,0.00,CLR,CLR,0.00,WeatherDisplay:10.36,2013-12-04 08:53:00,
2013-12-04 02:58:00,49.8,45.5,29.61,NNE,29,0.0,0.0,85,0.00,CLR,CLR,0.00,WeatherDisplay:10.36,2013-12-04 08:58:00,
2013-12-04 03:03:00,49.6,45.3,29.61,NNE,29,0.0,0.0,85,0.00,CLR,CLR,0.00,WeatherDisplay:10.36,2013-12-04 09:03:00,
2013-12-04 03:08:00,49.6,45.3,29.61,NNE,29,0.0,0.0,85,0.00,CLR,CLR,0.00,WeatherDisplay:10.36,2013-12-04 09:08:00,
2013-12-04 03:13:00,49.6,45.3,29.61,NNE,28,0.0,0.0,85,0.00,CLR,CLR,0.00,WeatherDisplay:10.36,2013-12-04 09:13:00,
2013-12-04 03:18:00,49.8,45.5,29.61,NNE,28,0.0,0.0,85,0.00,CLR,CLR,0.00,WeatherDisplay:10.36,2013-12-04 09:18:00,
2013-12-04 03:23:00,50.0,45.7,29.61,NNE,28,0.0,0.0,85,0.00,CLR,CLR,0.00,WeatherDisplay:10.36,2013-12-04 09:23:00,
2013-12-04 03:28:00,50.0,45.7,29.61,NNE,29,0.0,0.0,85,0.00,CLR,CLR,0.00,WeatherDisplay:10.36,2013-12-04 09:28:00,
2013-12-04 03:33:00,50.0,45.7,29.58,NNE,29,0.0,0.0,85,0.00,CLR,CLR,0.00,WeatherDisplay:10.36,2013-12-04 09:33:00,
2013-12-04 03:38:00,50.0,45.7,29.58,NNE,29,0.0,0.0,85,0.00,CLR,CLR,0.00,WeatherDisplay:10.36,2013-12-04 09:38:00,
2013-12-04 03:43:00,49.8,45.5,29.58,NNE,28,0.0,0.0,85,0.00,CLR,CLR,0.00,WeatherDisplay:10.36,2013-12-04 09:43:00,
2013-12-04 03:48:00,49.8,45.5,29.58,NNE,28,0.0,0.0,85,0.00,CLR,CLR,0.00,WeatherDisplay:10.36,2013-12-04 09:48:00,
2013-12-04 03:53:00,49.8,45.5,29.58,NNE,29,0.0,0.0,85,0.00,CLR,CLR,0.00,WeatherDisplay:10.36,2013-12-04 09:53:00,
2013-12-04 03:58:00,49.8,45.5,29.58,NNE,28,0.0,0.0,85,0.00,CLR,CLR,0.00,WeatherDisplay:10.36,2013-12-04 09:58:00,
2013-12-04 04:03:00,50.0,46.0,29.58,NNE,29,0.0,0.0,86,0.00,CLR,CLR,0.00,WeatherDisplay:10.36,2013-12-04 10:03:00,
2013-12-04 04:08:00,50.0,46.0,29.58,NNE,28,0.0,0.0,86,0.00,CLR,CLR,0.00,WeatherDisplay:10.36,2013-12-04 10:08:00,
2013-12-04 04:13:00,50.2,46.2,29.58,NNE,28,0.0,0.0,86,0.00,CLR,CLR,0.00,WeatherDisplay:10.36,2013-12-04 10:13:00,
2013-12-04 04:18:00,50.2,46.2,29.58,NNE,28,0.0,0.0,86,0.00,CLR,CLR,0.00,WeatherDisplay:10.36,2013-12-04 10:18:00,
2013-12-04 04:23:00,50.2,46.2,29.58,NNE,28,0.0,0.0,86,0.00,CLR,CLR,0.00,WeatherDisplay:10.36,2013-12-04 10:23:00,
2013-12-04 04:28:00,50.0,46.0,29.58,NNE,28,0.0,0.0,86,0.00,CLR,CLR,0.00,WeatherDisplay:10.36,2013-12-04 10:28:00,
2013-12-04 04:33:00,50.0,46.0,29.58,NNE,29,0.0,0.0,86,0.00,CLR,CLR,0.00,WeatherDisplay:10.36,2013-12-04 10:33:00,
2013-12-04 04:38:00,50.0,46.0,29.58,NNE,28,0.0,0.0,86,0.00,CLR,CLR,0.00,WeatherDisplay:10.36,2013-12-04 10:38:00,
2013-12-04 04:43:00,50.0,46.0,29.58,NNE,29,0.0,0.0,86,0.00,CLR,CLR,0.00,WeatherDisplay:10.36,2013-12-04 10:43:00,
2013-12-04 04:48:00,49.8,45.8,29.58,NNE,27,0.0,0.0,86,0.00,CLR,CLR,0.00,WeatherDisplay:10.36,2013-12-04 10:48:00,
2013-12-04 04:53:00,49.5,45.4,29.58,NNE,30,0.0,0.0,86,0.00,CLR,CLR,0.00,WeatherDisplay:10.36,2013-12-04 10:53:00,
2013-12-04 04:58:00,49.5,45.4,29.58,NNE,27,0.0,0.0,86,0.00,CLR,CLR,0.00,WeatherDisplay:10.36,2013-12-04 10:58:00,
2013-12-04 05:03:00,49.5,45.8,29.58,NNE,27,0.0,0.0,87,0.00,CLR,CLR,0.00,WeatherDisplay:10.36,2013-12-04 11:03:00,
2013-12-04 05:08:00,49.5,45.8,29.58,NNE,30,0.0,0.0,87,0.00,CLR,CLR,0.00,WeatherDisplay:10.36,2013-12-04 11:08:00,
2013-12-04 05:13:00,49.5,45.8,29.58,NNE,29,0.0,0.0,87,0.00,CLR,CLR,0.00,WeatherDisplay:10.36,2013-12-04 11:13:00,
2013-12-04 05:18:00,49.6,45.9,29.58,NNE,30,0.0,0.0,87,0.00,CLR,CLR,0.00,WeatherDisplay:10.36,2013-12-04 11:18:00,
2013-12-04 05:23:00,49.6,46.2,29.58,NNE,30,0.0,0.0,88,0.00,CLR,CLR,0.00,WeatherDisplay:10.36,2013-12-04 11:23:00,
2013-12-04 05:28:00,49.8,46.4,29.58,NNE,29,0.0,0.0,88,0.00,CLR,CLR,0.00,WeatherDisplay:10.36,2013-12-04 11:28:00,
2013-12-04 05:33:00,49.8,46.4,29.58,NNE,29,0.0,0.0,88,0.00,CLR,CLR,0.00,WeatherDisplay:10.36,2013-12-04 11:33:00,
2013-12-04 05:38:00,50.0,46.6,29.58,NNE,30,0.0,0.0,88,0.00,CLR,CLR,0.00,WeatherDisplay:10.36,2013-12-04 11:38:00,
2013-12-04 05:43:00,50.4,47.2,29.58,NNE,32,0.0,0.0,89,0.00,CLR,CLR,0.00,WeatherDisplay:10.36,2013-12-04 11:43:00,
2013-12-04 05:48:00,50.7,47.6,29.58,NE,36,0.0,0.0,89,0.00,CLR,CLR,0.00,WeatherDisplay:10.36,2013-12-04 11:48:00,
2013-12-04 05:53:00,51.3,47.8,29.58,NE,39,0.0,0.0,88,0.00,CLR,CLR,0.00,WeatherDisplay:10.36,2013-12-04 11:53:00,
2013-12-04 05:58:00,51.1,47.6,29.58,NE,50,0.0,0.0,88,0.00,CLR,CLR,0.00,WeatherDisplay:10.36,2013-12-04 11:58:00,
2013-12-04 06:03:00,50.9,47.5,29.58,NE,42,0.0,0.0,88,0.00,CLR,CLR,0.00,WeatherDisplay:10.36,2013-12-04 12:03:00,
2013-12-04 06:08:00,50.9,47.5,29.58,NE,38,0.0,0.0,88,0.00,CLR,CLR,0.00,WeatherDisplay:10.36,2013-12-04 12:08:00,
2013-12-04 06:13:00,50.9,47.5,29.58,ENE,62,0.0,0.0,88,0.00,CLR,CLR,0.00,WeatherDisplay:10.36,2013-12-04 12:13:00,
2013-12-04 06:18:00,51.1,47.6,29.58,NE,39,0.0,0.0,88,0.00,CLR,CLR,0.00,WeatherDisplay:10.36,2013-12-04 12:18:00,
2013-12-04 06:23:00,51.1,47.6,29.58,NE,35,0.0,0.0,88,0.00,CLR,CLR,0.00,WeatherDisplay:10.36,2013-12-04 12:23:00,
2013-12-04 06:28:00,51.3,47.8,29.58,ENE,78,0.0,0.0,88,0.00,CLR,CLR,0.00,WeatherDisplay:10.36,2013-12-04 12:28:00,
2013-12-04 06:33:00,51.3,47.8,29.58,NE,41,0.0,0.0,88,0.00,CLR,CLR,0.00,WeatherDisplay:10.36,2013-12-04 12:33:00,
2013-12-04 06:38:00,51.3,47.8,29.58,NE,38,0.0,0.0,88,0.00,CLR,CLR,0.00,WeatherDisplay:10.36,2013-12-04 12:38:00,
2013-12-04 06:43:00,51.3,47.8,29.58,NE,38,0.0,0.0,88,0.00,CLR,CLR,0.00,WeatherDisplay:10.36,2013-12-04 12:43:00,
2013-12-04 06:48:00,51.4,48.0,29.58,NE,44,0.0,0.0,88,0.00,CLR,CLR,0.00,WeatherDisplay:10.36,2013-12-04 12:48:00,
2013-12-04 06:53:00,51.4,48.3,29.58,NE,39,0.0,0.0,89,0.00,CLR,CLR,0.00,WeatherDisplay:10.36,2013-12-04 12:53:00,
2013-12-04 06:58:00,51.4,48.3,29.58,NE,45,0.0,0.0,89,0.00,CLR,CLR,0.00,WeatherDisplay:10.36,2013-12-04 12:58:00,
2013-12-04 07:03:00,51.6,48.5,29.58,NE,38,0.0,0.0,89,0.00,CLR,CLR,0.00,WeatherDisplay:10.36,2013-12-04 13:03:00,
2013-12-04 07:08:00,51.6,48.5,29.58,NNE,30,0.0,0.0,89,0.00,CLR,CLR,0.00,WeatherDisplay:10.36,2013-12-04 13:08:00,
2013-12-04 07:13:00,51.6,48.5,29.58,NNE,31,0.0,0.0,89,0.00,CLR,CLR,0.00,WeatherDisplay:10.36,2013-12-04 13:13:00,
2013-12-04 07:18:00,51.4,48.3,29.58,NNE,30,0.0,0.0,89,0.00,CLR,CLR,0.00,WeatherDisplay:10.36,2013-12-04 13:18:00,
2013-12-04 07:23:00,51.4,48.3,29.55,NNE,30,0.0,0.0,89,0.00,CLR,CLR,0.00,WeatherDisplay:10.36,2013-12-04 13:23:00,
2013-12-04 07:28:00,51.3,48.1,29.55,NNE,30,0.0,0.0,89,0.00,CLR,CLR,0.00,WeatherDisplay:10.36,2013-12-04 13:28:00,
2013-12-04 07:33:00,51.3,48.1,29.55,NNE,30,0.0,0.0,89,0.00,CLR,CLR,0.00,WeatherDisplay:10.36,2013-12-04 13:33:00,
2013-12-04 07:38:00,51.3,48.1,29.55,NNE,30,0.0,0.0,89,0.00,CLR,CLR,0.00,WeatherDisplay:10.36,2013-12-04 13:38:00,
2013-12-04 07:43:00,51.3,48.1,29.55,NNE,30,0.0,0.0,89,0.00,CLR,CLR,0.00,WeatherDisplay:10.36,2013-12-04 13:43:00,
2013-12-04 07:48:00,51.3,48.1,29.55,NNE,31,0.0,0.0,89,0.00,CLR,CLR,0.00,WeatherDisplay:10.36,2013-12-04 13:48:00,
2013-12-04 07:53:00,51.3,48.1,29.55,NNE,31,0.0,0.0,89,0.00,CLR,CLR,0.00,WeatherDisplay:10.36,2013-12-04 13:53:00,
2013-12-04 07:58:00,51.4,48.3,29.55,NNE,30,0.0,0.0,89,0.00,CLR,CLR,0.00,WeatherDisplay:10.36,2013-12-04 13:58:00,
2013-12-04 08:03:00,51.4,48.3,29.58,NNE,31,0.0,0.0,89,0.00,CLR,CLR,0.00,WeatherDisplay:10.36,2013-12-04 14:03:00,
2013-12-04 08:08:00,51.4,48.3,29.58,NNE,30,0.0,0.0,89,0.00,CLR,CLR,0.00,WeatherDisplay:10.36,2013-12-04 14:08:00,
2013-12-04 08:13:00,51.4,48.3,29.58,NNE,30,0.0,0.0,89,0.00,CLR,CLR,0.00,WeatherDisplay:10.36,2013-12-04 14:13:00,
2013-12-04 08:18:00,51.4,48.3,29.58,NNE,30,0.0,0.0,89,0.00,CLR,CLR,0.00,WeatherDisplay:10.36,2013-12-04 14:18:00,
2013-12-04 08:23:00,51.4,48.3,29.58,NNE,31,0.0,0.0,89,0.00,CLR,CLR,0.00,WeatherDisplay:10.36,2013-12-04 14:23:00,
2013-12-04 08:28:00,51.6,48.5,29.58,NNE,31,0.0,0.0,89,0.00,CLR,CLR,0.00,WeatherDisplay:10.36,2013-12-04 14:28:00,
2013-12-04 08:33:00,51.6,48.5,29.58,NNE,30,0.0,0.0,89,0.00,CLR,CLR,0.00,WeatherDisplay:10.36,2013-12-04 14:33:00,
2013-12-04 08:38:00,51.6,48.5,29.55,NNE,29,0.0,0.0,89,0.00,CLR,CLR,0.00,WeatherDisplay:10.36,2013-12-04 14:38:00,
2013-12-04 08:43:00,51.6,48.5,29.55,NNE,30,0.0,0.0,89,0.00,CLR,CLR,0.00,WeatherDisplay:10.36,2013-12-04 14:43:00,
2013-12-04 08:48:00,51.4,48.3,29.55,NNE,30,0.0,0.0,89,0.00,CLR,CLR,0.00,WeatherDisplay:10.36,2013-12-04 14:48:00,
2013-12-04 08:53:00,51.4,48.3,29.55,NNE,28,0.0,0.0,89,0.00,CLR,CLR,0.00,WeatherDisplay:10.36,2013-12-04 14:53:00,
2013-12-04 08:58:00,51.3,48.1,29.55,NNE,30,0.0,0.0,89,0.00,CLR,CLR,0.00,WeatherDisplay:10.36,2013-12-04 14:58:00,
2013-12-04 09:03:00,51.3,48.1,29.55,NNE,29,0.0,0.0,89,0.00,CLR,CLR,0.00,WeatherDisplay:10.36,2013-12-04 15:03:00,
2013-12-04 09:08:00,51.3,48.1,29.55,NNE,29,0.0,0.0,89,0.00,CLR,CLR,0.00,WeatherDisplay:10.36,2013-12-04 15:08:00,
2013-12-04 09:13:00,51.4,48.3,29.55,NNE,28,0.0,0.0,89,0.00,CLR,CLR,0.00,WeatherDisplay:10.36,2013-12-04 15:13:00,
2013-12-04 09:18:00,51.4,48.3,29.52,NNE,30,0.0,0.0,89,0.00,CLR,CLR,0.00,WeatherDisplay:10.36,2013-12-04 15:18:00,
2013-12-04 09:23:00,51.4,48.3,29.52,NNE,29,0.0,0.0,89,0.00,CLR,CLR,0.00,WeatherDisplay:10.36,2013-12-04 15:23:00,
2013-12-04 09:28:00,51.4,48.3,29.52,NNE,29,0.0,0.0,89,0.00,CLR,CLR,0.00,WeatherDisplay:10.36,2013-12-04 15:28:00,
2013-12-04 09:33:00,51.6,48.8,29.52,NNE,28,0.0,0.0,90,0.00,CLR,CLR,0.00,WeatherDisplay:10.36,2013-12-04 15:33:00,
2013-12-04 09:38:00,52.0,49.1,29.55,NNE,30,0.0,0.0,90,0.00,CLR,CLR,0.00,WeatherDisplay:10.36,2013-12-04 15:38:00,
2013-12-04 09:43:00,52.3,49.5,29.55,NNE,30,0.0,0.0,90,0.00,CLR,CLR,0.00,WeatherDisplay:10.36,2013-12-04 15:43:00,
2013-12-04 09:48:00,52.5,49.7,29.55,NNE,31,0.0,0.0,90,0.00,CLR,CLR,0.00,WeatherDisplay:10.36,2013-12-04 15:48:00,
2013-12-04 09:53:00,52.9,50.0,29.52,NNE,30,0.0,0.0,90,0.00,CLR,CLR,0.00,WeatherDisplay:10.36,2013-12-04 15:53:00,
2013-12-04 09:58:00,53.1,50.2,29.52,NNE,28,0.0,0.0,90,0.00,CLR,CLR,0.00,WeatherDisplay:10.36,2013-12-04 15:58:00,
2013-12-04 10:03:00,53.4,50.6,29.55,NNE,32,0.0,0.0,90,0.00,CLR,CLR,0.00,WeatherDisplay:10.36,2013-12-04 16:03:00,
2013-12-04 10:08:00,53.8,50.9,29.55,NNE,33,0.0,0.0,90,0.00,CLR,CLR,0.00,WeatherDisplay:10.36,2013-12-04 16:08:00,
2013-12-04 10:13:00,54.1,51.3,29.55,NNE,31,0.0,0.0,90,0.00,CLR,CLR,0.00,WeatherDisplay:10.36,2013-12-04 16:13:00,
2013-12-04 10:18:00,54.5,51.6,29.55,NNE,30,0.0,0.0,90,0.00,CLR,CLR,0.00,WeatherDisplay:10.36,2013-12-04 16:18:00,
2013-12-04 10:23:00,54.7,51.8,29.55,NNE,30,0.0,0.0,90,0.00,CLR,CLR,0.00,WeatherDisplay:10.36,2013-12-04 16:23:00,
2013-12-04 10:28:00,54.7,51.5,29.55,NNE,30,0.0,0.0,89,0.00,CLR,CLR,0.00,WeatherDisplay:10.36,2013-12-04 16:28:00,
2013-12-04 10:33:00,54.7,51.5,29.55,NNE,29,0.0,0.0,89,0.00,CLR,CLR,0.00,WeatherDisplay:10.36,2013-12-04 16:33:00,
2013-12-04 10:38:00,54.5,51.3,29.55,NNE,29,0.0,0.0,89,0.00,CLR,CLR,0.00,WeatherDisplay:10.36,2013-12-04 16:38:00,
2013-12-04 10:43:00,54.7,51.5,29.55,East,88,0.0,0.0,89,0.00,CLR,CLR,0.00,WeatherDisplay:10.36,2013-12-04 16:43:00,
2013-12-04 10:48:00,55.0,51.9,29.55,ENE,67,0.0,0.0,89,0.00,CLR,CLR,0.00,WeatherDisplay:10.36,2013-12-04 16:48:00,
2013-12-04 10:53:00,55.2,52.0,29.55,ENE,57,0.0,0.0,89,0.00,CLR,CLR,0.00,WeatherDisplay:10.36,2013-12-04 16:53:00,
2013-12-04 10:58:00,55.6,52.4,29.55,ENE,57,0.0,0.0,89,0.00,CLR,CLR,0.00,WeatherDisplay:10.36,2013-12-04 16:58:00,
2013-12-04 11:03:00,55.9,52.7,29.55,ENE,76,0.0,0.0,89,0.00,CLR,CLR,0.00,WeatherDisplay:10.36,2013-12-04 17:03:00,
2013-12-04 11:08:00,56.1,52.6,29.52,SE,129,0.0,0.0,88,0.00,CLR,CLR,0.00,WeatherDisplay:10.36,2013-12-04 17:08:00,
2013-12-04 11:13:00,56.3,52.5,29.52,ESE,108,0.0,0.0,87,0.00,CLR,CLR,0.00,WeatherDisplay:10.36,2013-12-04 17:13:00,
2013-12-04 11:18:00,56.5,52.7,29.52,East,96,0.0,0.0,87,0.00,CLR,CLR,0.00,WeatherDisplay:10.36,2013-12-04 17:18:00,
2013-12-04 11:23:00,56.7,52.5,29.52,ENE,63,0.0,0.0,86,0.00,CLR,CLR,0.00,WeatherDisplay:10.36,2013-12-04 17:23:00,
2013-12-04 11:28:00,56.8,52.4,29.52,NE,45,0.0,0.0,85,0.00,CLR,CLR,0.00,WeatherDisplay:10.36,2013-12-04 17:28:00,
2013-12-04 11:33:00,57.0,52.2,29.50,NE,51,0.0,0.0,84,0.00,CLR,CLR,0.00,WeatherDisplay:10.36,2013-12-04 17:33:00,
2013-12-04 11:38:00,57.2,52.4,29.50,East,87,0.0,0.0,84,0.00,CLR,CLR,0.00,WeatherDisplay:10.36,2013-12-04 17:38:00,
2013-12-04 11:43:00,57.4,52.3,29.50,East,89,0.0,0.0,83,0.00,CLR,CLR,0.00,WeatherDisplay:10.36,2013-12-04 17:43:00,
2013-12-04 11:48:00,57.7,52.3,29.50,NE,49,0.0,0.0,82,0.00,CLR,CLR,0.00,WeatherDisplay:10.36,2013-12-04 17:48:00,
2013-12-04 11:53:00,58.1,52.3,29.50,NE,38,0.0,0.0,81,0.00,CLR,CLR,0.00,WeatherDisplay:10.36,2013-12-04 17:53:00,
2013-12-04 11:58:00,58.5,52.3,29.50,NE,50,0.0,0.0,80,0.00,CLR,CLR,0.00,WeatherDisplay:10.36,2013-12-04 17:58:00,
2013-12-04 12:03:00,58.6,51.8,29.50,NE,46,0.0,0.0,78,0.00,CLR,CLR,0.00,WeatherDisplay:10.36,2013-12-04 18:03:00,
2013-12-04 12:08:00,59.2,51.6,29.47,East,93,0.0,0.0,76,0.00,CLR,CLR,0.00,WeatherDisplay:10.36,2013-12-04 18:08:00,
2013-12-04 12:13:00,59.4,51.1,29.47,ENE,58,0.0,0.0,74,0.00,CLR,CLR,0.00,WeatherDisplay:10.36,2013-12-04 18:13:00,
2013-12-04 12:18:00,59.5,51.2,29.47,ENE,68,0.0,0.0,74,0.00,CLR,CLR,0.00,WeatherDisplay:10.36,2013-12-04 18:18:00,
2013-12-04 12:23:00,59.7,50.3,29.47,NE,51,0.0,0.0,71,0.00,CLR,CLR,0.00,WeatherDisplay:10.36,2013-12-04 18:23:00,
2013-12-04 12:28:00,60.1,49.5,29.47,NE,47,0.0,0.0,68,0.00,CLR,CLR,0.00,WeatherDisplay:10.36,2013-12-04 18:28:00,
2013-12-04 12:33:00,60.1,49.5,29.47,NE,45,0.0,0.0,68,0.00,CLR,CLR,0.00,WeatherDisplay:10.36,2013-12-04 18:33:00,
2013-12-04 12:38:00,60.3,48.9,29.47,NE,55,0.0,0.0,66,0.00,CLR,CLR,0.00,WeatherDisplay:10.36,2013-12-04 18:38:00,
2013-12-04 12:43:00,60.4,48.6,29.47,NE,52,0.0,0.0,65,0.00,CLR,CLR,0.00,WeatherDisplay:10.36,2013-12-04 18:43:00,
2013-12-04 12:48:00,60.4,48.6,29.47,South,190,0.0,0.0,65,0.00,CLR,CLR,0.00,WeatherDisplay:10.36,2013-12-04 18:48:00,
2013-12-04 12:53:00,60.6,48.4,29.47,NE,46,0.0,0.0,64,0.00,CLR,CLR,0.00,WeatherDisplay:10.36,2013-12-04 18:53:00,
2013-12-04 12:58:00,60.4,48.2,29.47,NE,47,0.0,0.0,64,0.00,CLR,CLR,0.00,WeatherDisplay:10.36,2013-12-04 18:58:00,
2013-12-04 13:03:00,60.4,47.8,29.47,ENE,74,0.0,0.0,63,0.00,CLR,CLR,0.00,WeatherDisplay:10.36,2013-12-04 19:03:00,
2013-12-04 13:08:00,60.4,47.4,29.47,ENE,65,0.0,0.0,62,0.00,CLR,CLR,0.00,WeatherDisplay:10.36,2013-12-04 19:08:00,
2013-12-04 13:13:00,60.4,47.8,29.47,NE,54,0.0,0.0,63,0.00,CLR,CLR,0.00,WeatherDisplay:10.36,2013-12-04 19:13:00,
2013-12-04 13:18:00,60.6,47.9,29.47,NE,45,0.0,0.0,63,0.00,CLR,CLR,0.00,WeatherDisplay:10.36,2013-12-04 19:18:00,
2013-12-04 13:23:00,60.6,47.9,29.47,NE,46,0.0,0.0,63,0.00,CLR,CLR,0.00,WeatherDisplay:10.36,2013-12-04 19:23:00,
2013-12-04 13:28:00,60.8,47.7,29.47,NE,39,0.0,0.0,62,0.00,CLR,CLR,0.00,WeatherDisplay:10.36,2013-12-04 19:28:00,
2013-12-04 13:33:00,61.0,47.4,29.47,East,89,0.0,0.0,61,0.00,CLR,CLR,0.00,WeatherDisplay:10.36,2013-12-04 19:33:00,
2013-12-04 13:38:00,61.2,46.7,29.47,NE,48,0.0,0.0,59,0.00,CLR,CLR,0.00,WeatherDisplay:10.36,2013-12-04 19:38:00,
2013-12-04 13:43:00,61.2,45.8,29.47,NE,48,0.0,0.0,57,0.00,CLR,CLR,0.00,WeatherDisplay:10.36,2013-12-04 19:43:00,
2013-12-04 13:48:00,61.3,45.0,29.47,NE,47,0.0,0.0,55,0.00,CLR,CLR,0.00,WeatherDisplay:10.36,2013-12-04 19:48:00,
2013-12-04 13:53:00,61.5,45.2,29.47,ENE,77,0.0,0.0,55,0.00,CLR,CLR,0.00,WeatherDisplay:10.36,2013-12-04 19:53:00,
2013-12-04 13:58:00,61.7,45.4,29.47,NE,44,0.0,0.0,55,0.00,CLR,CLR,0.00,WeatherDisplay:10.36,2013-12-04 19:58:00,
2013-12-04 14:03:00,61.9,45.0,29.47,NE,45,0.0,0.0,54,0.00,CLR,CLR,0.00,WeatherDisplay:10.36,2013-12-04 20:03:00,
2013-12-04 14:08:00,61.9,43.0,29.47,NE,47,0.0,0.0,50,0.00,CLR,CLR,0.00,WeatherDisplay:10.36,2013-12-04 20:08:00,
2013-12-04 14:13:00,61.7,42.9,29.47,NE,45,0.0,0.0,50,0.00,CLR,CLR,0.00,WeatherDisplay:10.36,2013-12-04 20:13:00,
2013-12-04 14:18:00,61.7,42.9,29.47,NE,47,0.0,0.0,50,0.00,CLR,CLR,0.00,WeatherDisplay:10.36,2013-12-04 20:18:00,
2013-12-04 14:23:00,61.7,42.3,29.50,NE,49,0.0,0.0,49,0.00,CLR,CLR,0.00,WeatherDisplay:10.36,2013-12-04 20:23:00,
2013-12-04 14:28:00,61.7,42.3,29.50,NE,46,0.0,0.0,49,0.00,CLR,CLR,0.00,WeatherDisplay:10.36,2013-12-04 20:28:00,
2013-12-04 14:33:00,61.7,41.8,29.50,NE,45,0.0,0.0,48,0.00,CLR,CLR,0.00,WeatherDisplay:10.36,2013-12-04 20:33:00,
2013-12-04 14:38:00,61.5,41.6,29.50,NE,46,0.0,0.0,48,0.00,CLR,CLR,0.00,WeatherDisplay:10.36,2013-12-04 20:38:00,
2013-12-04 14:43:00,61.3,42.0,29.50,NE,47,0.0,0.0,49,0.00,CLR,CLR,0.00,WeatherDisplay:10.36,2013-12-04 20:43:00,
2013-12-04 14:48:00,61.3,42.0,29.50,NE,45,0.0,0.0,49,0.00,CLR,CLR,0.00,WeatherDisplay:10.36,2013-12-04 20:48:00,
2013-12-04 14:53:00,61.2,41.3,29.50,NE,46,0.0,0.0,48,0.00,CLR,CLR,0.00,WeatherDisplay:10.36,2013-12-04 20:53:00,
2013-12-04 14:58:00,60.8,41.0,29.50,NE,46,0.0,0.0,48,0.00,CLR,CLR,0.00,WeatherDisplay:10.36,2013-12-04 20:58:00,
2013-12-04 15:03:00,60.6,41.3,29.50,NE,51,0.0,0.0,49,0.00,CLR,CLR,0.00,WeatherDisplay:10.36,2013-12-04 21:03:00,
2013-12-04 15:08:00,60.3,41.0,29.52,NE,48,0.0,0.0,49,0.00,CLR,CLR,0.00,WeatherDisplay:10.36,2013-12-04 21:08:00,
2013-12-04 15:13:00,59.9,40.7,29.52,NE,50,0.0,0.0,49,0.00,CLR,CLR,0.00,WeatherDisplay:10.36,2013-12-04 21:13:00,
2013-12-04 15:18:00,59.4,39.7,29.52,NE,46,0.0,0.0,48,0.00,CLR,CLR,0.00,WeatherDisplay:10.36,2013-12-04 21:18:00,
2013-12-04 15:23:00,59.2,40.0,29.52,NE,51,0.0,0.0,49,0.00,CLR,CLR,0.00,WeatherDisplay:10.36,2013-12-04 21:23:00,
2013-12-04 15:28:00,59.0,39.3,29.52,NE,46,0.0,0.0,48,0.00,CLR,CLR,0.00,WeatherDisplay:10.36,2013-12-04 21:28:00,
2013-12-04 15:33:00,58.8,39.2,29.52,NE,45,0.0,0.0,48,0.00,CLR,CLR,0.00,WeatherDisplay:10.36,2013-12-04 21:33:00,
2013-12-04 15:38:00,58.8,39.7,29.52,NE,46,0.0,0.0,49,0.00,CLR,CLR,0.00,WeatherDisplay:10.36,2013-12-04 21:38:00,
2013-12-04 15:43:00,58.6,39.5,29.52,NE,45,0.0,0.0,49,0.00,CLR,CLR,0.00,WeatherDisplay:10.36,2013-12-04 21:43:00,
2013-12-04 15:48:00,58.5,39.9,29.52,ENE,63,0.0,0.0,50,0.00,CLR,CLR,0.00,WeatherDisplay:10.36,2013-12-04 21:48:00,
2013-12-04 15:53:00,58.1,40.1,29.55,NE,53,0.0,0.0,51,0.00,CLR,CLR,0.00,WeatherDisplay:10.36,2013-12-04 21:53:00,
2013-12-04 15:58:00,58.1,40.6,29.55,NE,46,0.0,0.0,52,0.00,CLR,CLR,0.00,WeatherDisplay:10.36,2013-12-04 21:58:00,
2013-12-04 16:03:00,57.9,40.9,29.55,NE,46,0.0,0.0,53,0.00,CLR,CLR,0.00,WeatherDisplay:10.36,2013-12-04 22:03:00,
2013-12-04 16:08:00,57.7,40.7,29.55,NE,50,0.0,0.0,53,0.00,CLR,CLR,0.00,WeatherDisplay:10.36,2013-12-04 22:08:00,
2013-12-04 16:13:00,57.4,40.9,29.55,NE,50,0.0,0.0,54,0.00,CLR,CLR,0.00,WeatherDisplay:10.36,2013-12-04 22:13:00,
2013-12-04 16:18:00,57.2,41.2,29.55,NE,45,0.0,0.0,55,0.00,CLR,CLR,0.00,WeatherDisplay:10.36,2013-12-04 22:18:00,
2013-12-04 16:23:00,56.8,40.8,29.55,NE,45,0.0,0.0,55,0.00,CLR,CLR,0.00,WeatherDisplay:10.36,2013-12-04 22:23:00,
2013-12-04 16:28:00,56.7,41.1,29.55,NE,46,0.0,0.0,56,0.00,CLR,CLR,0.00,WeatherDisplay:10.36,2013-12-04 22:28:00,
2013-12-04 16:33:00,56.5,41.4,29.55,NE,45,0.0,0.0,57,0.00,CLR,CLR,0.00,WeatherDisplay:10.36,2013-12-04 22:33:00,
2013-12-04 16:38:00,55.8,40.7,29.58,NE,45,0.0,0.0,57,0.00,CLR,CLR,0.00,WeatherDisplay:10.36,2013-12-04 22:38:00,
2013-12-04 16:43:00,55.0,40.5,29.58,NE,45,0.0,0.0,58,0.00,CLR,CLR,0.00,WeatherDisplay:10.36,2013-12-04 22:43:00,
2013-12-04 16:48:00,54.3,40.3,29.61,NE,45,0.0,0.0,59,0.00,CLR,CLR,0.00,WeatherDisplay:10.36,2013-12-04 22:48:00,
2013-12-04 16:53:00,54.0,39.9,29.61,NE,45,0.0,0.0,59,0.00,CLR,CLR,0.00,WeatherDisplay:10.36,2013-12-04 22:53:00,
2013-12-04 16:58:00,53.2,39.7,29.61,NE,45,0.0,0.0,60,0.00,CLR,CLR,0.00,WeatherDisplay:10.36,2013-12-04 22:58:00,
2013-12-04 17:03:00,52.9,39.8,29.61,NE,46,0.0,0.0,61,0.00,CLR,CLR,0.00,WeatherDisplay:10.36,2013-12-04 23:03:00,
2013-12-04 17:08:00,52.2,39.5,29.61,NE,46,0.0,0.0,62,0.00,CLR,CLR,0.00,WeatherDisplay:10.36,2013-12-04 23:08:00,
2013-12-04 17:13:00,51.8,38.8,29.61,NE,46,0.0,0.0,61,0.00,CLR,CLR,0.00,WeatherDisplay:10.36,2013-12-04 23:13:00,
2013-12-04 17:18:00,51.4,38.4,29.64,NE,48,0.0,0.0,61,0.00,CLR,CLR,0.00,WeatherDisplay:10.36,2013-12-04 23:18:00,
2013-12-04 17:23:00,51.3,38.3,29.64,NE,46,0.0,0.0,61,0.00,CLR,CLR,0.00,WeatherDisplay:10.36,2013-12-04 23:23:00,
2013-12-04 17:28:00,50.9,37.9,29.64,NE,49,0.0,0.0,61,0.00,CLR,CLR,0.00,WeatherDisplay:10.36,2013-12-04 23:28:00,
2013-12-04 17:33:00,50.4,37.0,29.64,NE,46,0.0,0.0,60,0.00,CLR,CLR,0.00,WeatherDisplay:10.36,2013-12-04 23:33:00,
2013-12-04 17:38:00,50.0,36.7,29.64,NE,52,0.0,0.0,60,0.00,CLR,CLR,0.00,WeatherDisplay:10.36,2013-12-04 23:38:00,
2013-12-04 17:43:00,49.6,36.7,29.64,NE,46,0.0,0.0,61,0.00,CLR,CLR,0.00,WeatherDisplay:10.36,2013-12-04 23:43:00,
2013-12-04 17:48:00,49.5,36.6,29.64,NE,47,0.0,0.0,61,0.00,CLR,CLR,0.00,WeatherDisplay:10.36,2013-12-04 23:48:00,
2013-12-04 17:53:00,49.1,36.2,29.67,NE,46,0.0,0.0,61,0.00,CLR,CLR,0.00,WeatherDisplay:10.36,2013-12-04 23:53:00,
2013-12-04 17:58:00,48.7,35.9,29.67,NE,51,0.0,0.0,61,0.00,CLR,CLR,0.00,WeatherDisplay:10.36,2013-12-04 23:58:00,
2013-12-04 18:03:00,48.2,35.0,29.67,NE,46,0.0,0.0,60,0.00,CLR,CLR,0.00,WeatherDisplay:10.36,2013-12-05 00:03:00,
2013-12-04 18:08:00,48.0,34.8,29.67,NE,46,0.0,0.0,60,0.00,CLR,CLR,0.00,WeatherDisplay:10.36,2013-12-05 00:08:00,
2013-12-04 18:13:00,47.5,34.3,29.67,NE,47,0.0,0.0,60,0.00,CLR,CLR,0.00,WeatherDisplay:10.36,2013-12-05 00:13:00,
2013-12-04 18:18:00,47.1,33.9,29.67,NE,47,0.0,0.0,60,0.00,CLR,CLR,0.00,WeatherDisplay:10.36,2013-12-05 00:18:00,
2013-12-04 18:23:00,46.8,33.2,29.70,NE,48,0.0,0.0,59,0.00,CLR,CLR,0.00,WeatherDisplay:10.36,2013-12-05 00:23:00,
2013-12-04 18:28:00,46.2,32.2,29.70,NE,46,0.0,0.0,58,0.00,CLR,CLR,0.00,WeatherDisplay:10.36,2013-12-05 00:28:00,
2013-12-04 18:33:00,46.0,32.1,29.70,NE,46,0.0,0.0,58,0.00,CLR,CLR,0.00,WeatherDisplay:10.36,2013-12-05 00:33:00,
2013-12-04 18:38:00,45.7,31.7,29.70,NE,51,0.0,0.0,58,0.00,CLR,CLR,0.00,WeatherDisplay:10.36,2013-12-05 00:38:00,
2013-12-04 18:43:00,45.3,31.4,29.70,NE,47,0.0,0.0,58,0.00,CLR,CLR,0.00,WeatherDisplay:10.36,2013-12-05 00:43:00,
2013-12-04 18:48:00,45.1,31.2,29.70,NE,46,0.0,0.0,58,0.00,CLR,CLR,0.00,WeatherDisplay:10.36,2013-12-05 00:48:00,
2013-12-04 18:53:00,45.0,30.6,29.70,NE,53,0.0,0.0,57,0.00,CLR,CLR,0.00,WeatherDisplay:10.36,2013-12-05 00:53:00,
2013-12-04 18:58:00,44.4,30.1,29.70,NE,48,0.0,0.0,57,0.00,CLR,CLR,0.00,WeatherDisplay:10.36,2013-12-05 00:58:00,
2013-12-04 19:03:00,44.1,29.4,29.70,NE,51,0.0,0.0,56,0.00,CLR,CLR,0.00,WeatherDisplay:10.36,2013-12-05 01:03:00,
2013-12-04 19:08:00,43.7,29.0,29.70,NE,45,0.0,0.0,56,0.00,CLR,CLR,0.00,WeatherDisplay:10.36,2013-12-05 01:08:00,
2013-12-04 19:13:00,43.3,29.1,29.70,ENE,59,0.0,0.0,57,0.00,CLR,CLR,0.00,WeatherDisplay:10.36,2013-12-05 01:13:00,
2013-12-04 19:18:00,43.0,28.3,29.70,NE,51,0.0,0.0,56,0.00,CLR,CLR,0.00,WeatherDisplay:10.36,2013-12-05 01:18:00,
2013-12-04 19:23:00,42.6,28.0,29.70,NE,47,0.0,0.0,56,0.00,CLR,CLR,0.00,WeatherDisplay:10.36,2013-12-05 01:23:00,
2013-12-04 19:28:00,42.4,27.8,29.70,NE,47,0.0,0.0,56,0.00,CLR,CLR,0.00,WeatherDisplay:10.36,2013-12-05 01:28:00,
2013-12-04 19:34:00,42.3,27.7,29.73,ENE,62,0.0,0.0,56,0.00,CLR,CLR,0.00,WeatherDisplay:10.36,2013-12-05 01:34:00,
2013-12-04 19:39:00,42.1,27.5,29.73,NE,49,0.0,0.0,56,0.00,CLR,CLR,0.00,WeatherDisplay:10.36,2013-12-05 01:39:00,
2013-12-04 19:44:00,41.7,27.2,29.73,NE,46,0.0,0.0,56,0.00,CLR,CLR,0.00,WeatherDisplay:10.36,2013-12-05 01:44:00,
2013-12-04 19:49:00,41.5,27.0,29.73,NE,46,0.0,0.0,56,0.00,CLR,CLR,0.00,WeatherDisplay:10.36,2013-12-05 01:49:00,
2013-12-04 19:54:00,41.4,26.8,29.73,NE,47,0.0,0.0,56,0.00,CLR,CLR,0.00,WeatherDisplay:10.36,2013-12-05 01:54:00,
2013-12-04 19:59:00,41.2,26.7,29.73,NE,50,0.0,0.0,56,0.00,CLR,CLR,0.00,WeatherDisplay:10.36,2013-12-05 01:59:00,
2013-12-04 20:04:00,41.0,26.1,29.73,NE,47,0.0,0.0,55,0.00,CLR,CLR,0.00,WeatherDisplay:10.36,2013-12-05 02:04:00,
2013-12-04 20:09:00,40.8,25.9,29.73,NE,50,0.0,0.0,55,0.00,CLR,CLR,0.00,WeatherDisplay:10.36,2013-12-05 02:09:00,
2013-12-04 20:14:00,40.6,25.7,29.73,NE,46,0.0,0.0,55,0.00,CLR,CLR,0.00,WeatherDisplay:10.36,2013-12-05 02:14:00,
2013-12-04 20:19:00,40.5,25.1,29.76,NE,47,0.0,0.0,54,0.00,CLR,CLR,0.00,WeatherDisplay:10.36,2013-12-05 02:19:00,
2013-12-04 20:24:00,40.1,24.8,29.76,ENE,61,0.0,0.0,54,0.00,CLR,CLR,0.00,WeatherDisplay:10.36,2013-12-05 02:24:00,
2013-12-04 20:29:00,39.7,24.4,29.76,NE,46,0.0,0.0,54,0.00,CLR,CLR,0.00,WeatherDisplay:10.36,2013-12-05 02:29:00,
2013-12-04 20:34:00,39.4,24.1,29.76,NE,54,0.0,0.0,54,0.00,CLR,CLR,0.00,WeatherDisplay:10.36,2013-12-05 02:34:00,
2013-12-04 20:39:00,39.4,24.1,29.76,NE,54,0.0,0.0,54,0.00,CLR,CLR,0.00,WeatherDisplay:10.36,2013-12-05 02:39:00,
2013-12-04 20:44:00,39.2,23.9,29.76,NE,47,0.0,0.0,54,0.00,CLR,CLR,0.00,WeatherDisplay:10.36,2013-12-05 02:44:00,
2013-12-04 20:49:00,39.0,23.8,29.79,NE,47,0.0,0.0,54,0.00,CLR,CLR,0.00,WeatherDisplay:10.36,2013-12-05 02:49:00,
2013-12-04 20:54:00,38.7,23.4,29.79,NE,50,0.0,0.0,54,0.00,CLR,CLR,0.00,WeatherDisplay:10.36,2013-12-05 02:54:00,
2013-12-04 20:59:00,38.5,23.3,29.79,NE,48,0.0,0.0,54,0.00,CLR,CLR,0.00,WeatherDisplay:10.36,2013-12-05 02:59:00,
2013-12-04 21:04:00,38.1,22.9,29.79,ENE,67,0.0,0.0,54,0.00,CLR,CLR,0.00,WeatherDisplay:10.36,2013-12-05 03:04:00,
2013-12-04 21:09:00,37.9,22.8,29.79,NE,47,0.0,0.0,54,0.00,CLR,CLR,0.00,WeatherDisplay:10.36,2013-12-05 03:09:00,
2013-12-04 21:14:00,37.6,22.0,29.79,NE,52,0.0,0.0,53,0.00,CLR,CLR,0.00,WeatherDisplay:10.36,2013-12-05 03:14:00,
2013-12-04 21:19:00,37.4,22.3,29.79,NE,47,0.0,0.0,54,0.00,CLR,CLR,0.00,WeatherDisplay:10.36,2013-12-05 03:19:00,
2013-12-04 21:24:00,37.0,21.9,29.79,NE,46,0.0,0.0,54,0.00,CLR,CLR,0.00,WeatherDisplay:10.36,2013-12-05 03:24:00,
2013-12-04 21:29:00,37.0,21.9,29.79,NE,48,0.0,0.0,54,0.00,CLR,CLR,0.00,WeatherDisplay:10.36,2013-12-05 03:29:00,
2013-12-04 21:34:00,36.9,21.7,29.82,NE,46,0.0,0.0,54,0.00,CLR,CLR,0.00,WeatherDisplay:10.36,2013-12-05 03:34:00,
2013-12-04 21:39:00,36.7,21.6,29.82,NE,46,0.0,0.0,54,0.00,CLR,CLR,0.00,WeatherDisplay:10.36,2013-12-05 03:39:00,
2013-12-04 21:44:00,36.3,21.2,29.82,NE,47,0.0,0.0,54,0.00,CLR,CLR,0.00,WeatherDisplay:10.36,2013-12-05 03:44:00,
2013-12-04 21:49:00,36.1,21.1,29.82,NE,47,0.0,0.0,54,0.00,CLR,CLR,0.00,WeatherDisplay:10.36,2013-12-05 03:49:00,
2013-12-04 21:54:00,36.1,21.1,29.82,ENE,71,0.0,0.0,54,0.00,CLR,CLR,0.00,WeatherDisplay:10.36,2013-12-05 03:54:00,
2013-12-04 21:59:00,35.8,20.7,29.82,NE,46,0.0,0.0,54,0.00,CLR,CLR,0.00,WeatherDisplay:10.36,2013-12-05 03:59:00,
2013-12-04 22:04:00,35.8,20.7,29.82,NE,47,0.0,0.0,54,0.00,CLR,CLR,0.00,WeatherDisplay:10.36,2013-12-05 04:04:00,
2013-12-04 22:09:00,35.4,20.4,29.82,NE,47,0.0,0.0,54,0.00,CLR,CLR,0.00,WeatherDisplay:10.36,2013-12-05 04:09:00,
2013-12-04 22:14:00,35.2,20.2,29.82,NE,46,0.0,0.0,54,0.00,CLR,CLR,0.00,WeatherDisplay:10.36,2013-12-05 04:14:00,
2013-12-04 22:19:00,35.2,20.2,29.82,NE,46,0.0,0.0,54,0.00,CLR,CLR,0.00,WeatherDisplay:10.36,2013-12-05 04:19:00,
2013-12-04 22:24:00,35.1,20.1,29.82,NE,47,0.0,0.0,54,0.00,CLR,CLR,0.00,WeatherDisplay:10.36,2013-12-05 04:24:00,
2013-12-04 22:29:00,35.1,20.1,29.82,NE,46,0.0,0.0,54,0.00,CLR,CLR,0.00,WeatherDisplay:10.36,2013-12-05 04:29:00,
2013-12-04 22:34:00,34.9,19.5,29.82,NE,47,0.0,0.0,53,0.00,CLR,CLR,0.00,WeatherDisplay:10.36,2013-12-05 04:34:00,
2013-12-04 22:39:00,34.5,19.6,29.85,NE,47,0.0,0.0,54,0.00,CLR,CLR,0.00,WeatherDisplay:10.36,2013-12-05 04:39:00,
2013-12-04 22:44:00,34.3,19.4,29.85,NE,46,0.0,0.0,54,0.00,CLR,CLR,0.00,WeatherDisplay:10.36,2013-12-05 04:44:00,
2013-12-04 22:49:00,34.2,18.8,29.85,NE,47,0.0,0.0,53,0.00,CLR,CLR,0.00,WeatherDisplay:10.36,2013-12-05 04:49:00,
2013-12-04 22:54:00,34.0,18.6,29.85,NE,48,0.0,0.0,53,0.00,CLR,CLR,0.00,WeatherDisplay:10.36,2013-12-05 04:54:00,
2013-12-04 22:59:00,33.6,18.3,29.85,NE,47,0.0,0.0,53,0.00,CLR,CLR,0.00,WeatherDisplay:10.36,2013-12-05 04:59:00,
2013-12-04 23:01:00,33.6,18.3,29.85,NE,50,0.0,0.0,53,0.00,CLR,CLR,0.00,WeatherDisplay:10.36,2013-12-05 05:01:00,
2013-12-04 23:02:00,33.6,18.3,29.85,NE,47,0.0,0.0,53,0.00,CLR,CLR,0.00,WeatherDisplay:10.36,2013-12-05 05:02:00,
2013-12-04 23:03:00,33.6,18.3,29.85,NE,48,0.0,0.0,53,0.00,CLR,CLR,0.00,WeatherDisplay:10.36,2013-12-05 05:03:00,
2013-12-04 23:05:00,33.6,18.3,29.85,NE,47,0.0,0.0,53,0.00,CLR,CLR,0.00,WeatherDisplay:10.36,2013-12-05 05:05:00,
2013-12-04 23:07:00,33.4,18.1,29.85,NE,48,0.0,0.0,53,0.00,CLR,CLR,0.00,WeatherDisplay:10.36,2013-12-05 05:07:00,
2013-12-04 23:08:00,33.4,18.1,29.85,NE,47,0.0,0.0,53,0.00,CLR,CLR,0.00,WeatherDisplay:10.36,2013-12-05 05:08:00,
2013-12-04 23:13:00,33.3,18.0,29.85,NE,47,0.0,0.0,53,0.00,CLR,CLR,0.00,WeatherDisplay:10.36,2013-12-05 05:13:00,
2013-12-04 23:18:00,33.3,18.0,29.85,NE,47,0.0,0.0,53,0.00,CLR,CLR,0.00,WeatherDisplay:10.36,2013-12-05 05:18:00,
2013-12-04 23:23:00,33.3,18.0,29.85,NE,47,0.0,0.0,53,0.00,CLR,CLR,0.00,WeatherDisplay:10.36,2013-12-05 05:23:00,
2013-12-04 23:28:00,33.1,17.8,29.85,NE,48,0.0,0.0,53,0.00,CLR,CLR,0.00,WeatherDisplay:10.36,2013-12-05 05:28:00,
2013-12-04 23:33:00,32.9,17.6,29.85,NE,49,0.0,0.0,53,0.00,CLR,CLR,0.00,WeatherDisplay:10.36,2013-12-05 05:33:00,
2013-12-04 23:38:00,32.7,17.5,29.88,NE,47,0.0,0.0,53,0.00,CLR,CLR,0.00,WeatherDisplay:10.36,2013-12-05 05:38:00,
2013-12-04 23:43:00,32.5,17.3,29.88,NE,47,0.0,0.0,53,0.00,CLR,CLR,0.00,WeatherDisplay:10.36,2013-12-05 05:43:00,
2013-12-04 23:48:00,32.5,17.3,29.88,NE,46,0.0,0.0,53,0.00,CLR,CLR,0.00,WeatherDisplay:10.36,2013-12-05 05:48:00,
2013-12-04 23:53:00,32.4,17.1,29.88,NE,50,0.0,0.0,53,0.00,CLR,CLR,0.00,WeatherDisplay:10.36,2013-12-05 05:53:00,
2013-12-04 23:58:00,32.2,16.9,29.88,NE,47,0.0,0.0,53,0.00,CLR,CLR,0.00,WeatherDisplay:10.36,2013-12-05 05:58:00,